Location: Bratislava
(48.1500°N, 17.1170°E)
Time: 10:43:12
(UTC+02:00)

Tiangong 2 - Pass Details

Date: 26 January 2019
Orbit: 378 x 389 km, 42.8° (Epoch: 22 April)

Event Time Altitude Azimuth Distance (km) Brightness Sun altitude
Exits shadow 06:26:49 - 240° (WSW) 1,614 3.8 -10.2°
Reaches altitude 10° 06:28:14 10° 218° (SW) 1,408 3.7 -10.0°
Maximum altitude 06:28:45 10° 208° (SSW) 1,391 3.8 -9.9°
Drops below altitude 10° 06:29:16 10° 199° (SSW) 1,409 3.9 -9.8°
Sets 06:32:57 0° 155° (SSE) 2,263 5.7 -9.2°
